Flag for China Weather past 2 weeks in Guangzhou, Guangdong, China

Now
86 °F

Partly sunny.


Feels Like: 97 °F
Forecast: 78 / 89 °F
Wind: 8 mph from East

Location: Canton Airport

Current Time: Jul 30, 2015 at 10:55:49 AM

Latest Report: Jul 30, 2015 at 10:30 AM


Visibility: N/A

Pressure: 29.86 "Hg

Humidity: 75%

Dew point: 77 °F

Location of GuangzhouLocation

Historic Weather in Guangzhou — Graph

°F

Guangzhou temperature yesterday

Maximum temperature yesterday: 88 °F (at 11:00 AM)
Minimum temperature yesterday: 77 °F (at 4:00 AM)
Average temperature yesterday: 83 °F

Past Weeks' High & Low Weather Summary

 TemperatureHumidityPressure
High97 °F (Jul 15, 3:00 PM)100% (Jul 16, 3:30 AM)29.92 "Hg (Jul 16, 3:30 AM)
Low75 °F (Jul 28, 4:00 PM)53% (Jul 15, 3:00 PM)29.45 "Hg (Jul 15, 4:30 PM)
Average83 °F85%29.68 "Hg
* Reported Jul 15 9:00 AM — Jul 30 9:30 AM, Guangzhou, Weather by CustomWeather, © 2015

Note: Actual official high and low records may vary slightly from our data, if they occured in-between our weather recording intervals... More about our weather records

Advertising

Guangzhou weather history for previous 24 hours

 ConditionsComfort  
Time TempWeatherWind HumidityBarometerVisibility
9:30 AM
Thu, Jul 30
84 °FPartly sunny.3 mph79%29.86 "HgN/A
9:00 AM82 °FPassing clouds.6 mph84%29.86 "HgN/A
8:30 AM82 °FPassing clouds.3 mph84%29.86 "HgN/A
8:00 AM81 °FClear.3 mph84%29.86 "Hg5 mi
7:30 AM79 °FClear.3 mph89%29.86 "Hg5 mi
7:00 AM77 °FClear.3 mph94%29.83 "Hg5 mi
6:30 AM77 °FClear.3 mph94%29.83 "Hg5 mi
6:00 AM77 °FClear.3 mph94%29.83 "Hg5 mi
5:30 AM77 °FClear.3 mph94%29.83 "Hg5 mi
5:00 AM77 °FClear.3 mph94%29.83 "Hg5 mi
4:30 AM79 °FClear.3 mph89%29.83 "Hg5 mi
4:00 AM79 °FClear.3 mph89%29.83 "Hg5 mi
3:30 AM79 °FClear.3 mph89%29.83 "Hg5 mi
3:00 AM79 °FClear.3 mph89%29.83 "Hg5 mi
2:30 AM79 °FPassing clouds.3 mph89%29.83 "HgN/A
2:00 AM79 °FPassing clouds.3 mph89%29.83 "HgN/A
1:30 AM79 °FPassing clouds.6 mph89%29.83 "HgN/A
1:00 AM79 °FPassing clouds.6 mph89%29.86 "HgN/A
12:30 AM79 °FPassing clouds.3 mph89%29.86 "HgN/A
12:00 AM79 °FPassing clouds.3 mph89%29.86 "HgN/A
11:30 PM
Wed, Jul 29
81 °FPassing clouds.3 mph84%29.86 "HgN/A
11:00 PM81 °FPassing clouds.3 mph89%29.86 "HgN/A
10:30 PM81 °FPassing clouds.3 mph84%29.86 "HgN/A
10:00 PM81 °FClear.1 mph84%29.86 "Hg10 mi
9:30 PM82 °FClear.3 mph79%29.86 "Hg10 mi
9:00 PM82 °FPassing clouds.3 mph79%29.86 "HgN/A
8:30 PM82 °FClear.6 mph79%29.83 "Hg10 mi
8:00 PM82 °FClear.6 mph84%29.83 "Hg10 mi
7:30 PM82 °FPassing clouds.6 mph79%29.83 "HgN/A
7:00 PM84 °FPassing clouds.6 mph74%29.83 "HgN/A
6:30 PM84 °FPassing clouds.8 mph74%29.80 "HgN/A
6:00 PM86 °FPassing clouds.10 mph70%29.80 "HgN/A
5:30 PM86 °FScattered clouds.10 mph70%29.80 "HgN/A
5:00 PM88 °FPassing clouds.8 mph66%29.80 "HgN/A
4:30 PM88 °FPassing clouds.8 mph66%29.80 "HgN/A
4:00 PM88 °FPassing clouds.10 mph70%29.80 "HgN/A
3:30 PM88 °FScattered clouds.8 mph70%29.83 "HgN/A
3:00 PM86 °FScattered clouds.10 mph70%29.83 "HgN/A
2:30 PM88 °FScattered clouds.10 mph66%29.83 "HgN/A
2:00 PM86 °FScattered clouds.13 mph75%29.83 "HgN/A
1:30 PM88 °FPartly sunny.8 mph70%29.83 "HgN/A
1:00 PM86 °FPartly sunny.10 mph70%29.86 "HgN/A
12:30 PM84 °FPartly sunny.8 mph74%29.86 "HgN/A
11:30 AM86 °FThunderstorms. Partly sunny.8 mph75%29.86 "HgN/A
11:00 AM88 °FPartly sunny.8 mph70%29.86 "HgN/A
10:30 AM86 °FPartly sunny.6 mph75%29.86 "HgN/A
10:00 AM86 °FPartly sunny.6 mph75%29.86 "HgN/A
Weather by CustomWeather, © 2015

See weather overviewHow to use our weather pages